Weather History for Lamar, CO

Change the Weather History Date:

Tuesday, October 11, 2011

  Actual Average Record
Temperature  
Mean Temperature 59 °F 55 °F  
Max Temperature 77 °F 73 °F 93 °F (1926)
Min Temperature 40 °F 37 °F 22 °F (1992)
Degree Days  
Heating Degree Days 6 10  
Month to date heating degree days 54 92  
Since 1 July heating degree days 106 175  
Cooling Degree Days 0 0  
Month to date cooling degree days 22 8  
Year to date cooling degree days 1533 1120  
Growing Degree Days 7 (Base 50)    
Moisture  
Dew Point 43 °F    
Average Humidity 59    
Maximum Humidity 100    
Minimum Humidity 18    
Precipitation  
Precipitation 0.00 in 0.02 in 2.51 in (1930)
Month to date precipitation 0.14 0.28  
Year to date precipitation 13.90  
Snow  
Snow 0.00 in - - ()
Month to date snowfall 0.0  
Snow Depth 0.00 in    
Sea Level Pressure  
Sea Level Pressure 29.77 in    
Wind  
Wind Speed 7 mph (West)    
Max Wind Speed 17 mph    
Max Gust Speed 21 mph    
Visibility 6 miles    
Events Fog    
T = Trace of Precipitation, MM = Missing Value Source: NWS Daily Summary

Daily Weather History Graph

Daily Weather History Graph

Search for Another Location

Airport:

Trip Planner

Search our weather history database for the weather conditions in past years. The results will help you decide how hot, cold, wet, or windy it might be!

Date:

Astronomy

Oct. 11, 2011 Rise Set
Actual Time 6:55 AM MDT 6:19 PM MDT
Civil Twilight 6:28 AM MDT 6:45 PM MDT
Nautical Twilight 5:58 AM MDT 7:15 PM MDT
Astronomical Twilight 5:27 AM MDT 7:46 PM MDT
Moon 5:52 PM MDT (10/11) 6:34 AM MDT (10/11)
Length of Visible Light 12h 16m
Length of Day
11h 23m
Full, 100% of the Moon is Illuminated
Oct 11
Full
Oct 11
Full
Oct 19
Last Quarter
Oct 26
New
Nov 2
First Quarter

Hourly Weather History & Observations

Time (MDT) Temp. Windchill Dew Point Humidity Pressure Visibility Wind Dir Wind Speed Gust Speed Precip Events Conditions
12:10 AM 39.2 °F - 37.4 °F 93% 29.84 in 8.0 mi Calm Calm - N/A   Scattered Clouds
12:18 AM 41.0 °F - 39.2 °F 93% 29.83 in 9.0 mi Calm Calm - N/A   Mostly Cloudy
12:40 AM 42.8 °F - 41.0 °F 93% 29.82 in 1.2 mi Calm Calm - N/A   Overcast
12:53 AM 43.0 °F - 43.0 °F 100% 29.75 in 0.2 mi Calm Calm - N/A Fog Fog
1:53 AM 48.0 °F - 48.0 °F 100% 29.75 in 0.2 mi NNW 5.8 mph - N/A Fog Fog
2:53 AM 48.0 °F - 48.0 °F 100% 29.74 in 0.2 mi NW 3.5 mph - N/A Fog Fog
3:53 AM 48.0 °F - 48.0 °F 100% 29.73 in 0.2 mi WNW 4.6 mph - N/A Fog Fog
4:53 AM 46.9 °F - 46.9 °F 100% 29.73 in 0.5 mi WNW 3.5 mph - N/A Fog Fog
5:26 AM 46.4 °F 42.4 °F 46.4 °F 100% 29.83 in 1.2 mi West 8.1 mph - N/A   Overcast
6:05 AM 44.6 °F 39.7 °F 44.6 °F 100% 29.83 in 1.2 mi West 9.2 mph - N/A   Overcast
6:09 AM 44.6 °F 40.2 °F 44.6 °F 100% 29.83 in 2.0 mi West 8.1 mph - N/A   Overcast
6:15 AM 44.6 °F 40.2 °F 44.6 °F 100% 29.83 in 1.2 mi West 8.1 mph - N/A   Overcast
6:18 AM 44.6 °F 39.7 °F 44.6 °F 100% 29.83 in 0.8 mi West 9.2 mph - N/A   Overcast
6:31 AM 42.8 °F 38.0 °F 42.8 °F 100% 29.83 in 1.2 mi West 8.1 mph - N/A   Overcast
6:33 AM 42.8 °F 37.5 °F 42.8 °F 100% 29.83 in 2.0 mi WSW 9.2 mph - N/A   Overcast
7:02 AM 39.2 °F 31.6 °F 39.2 °F 100% 29.83 in 7.0 mi WSW 12.7 mph - N/A   Scattered Clouds
7:41 AM 39.2 °F 35.0 °F 39.2 °F 100% 29.84 in 3.0 mi West 5.8 mph - N/A   Mostly Cloudy
8:03 AM 41.0 °F 36.4 °F 41.0 °F 100% 29.84 in 5.0 mi West 6.9 mph - N/A   Scattered Clouds
8:53 AM 46.0 °F 41.9 °F 43.0 °F 89% 29.79 in 8.0 mi West 8.1 mph - N/A   Clear
9:53 AM 53.1 °F - 43.0 °F 69% 29.77 in 10.0 mi WSW 11.5 mph - N/A   Clear
10:53 AM 63.0 °F - 43.0 °F 48% 29.74 in 10.0 mi West 13.8 mph - N/A   Clear
11:53 AM 73.9 °F - 32.0 °F 21% 29.72 in 10.0 mi WNW 12.7 mph 17.3 mph N/A   Clear
2:53 PM 75.0 °F - 30.0 °F 19% 29.64 in 10.0 mi Calm Calm - N/A   Clear
3:53 PM 75.0 °F - 28.9 °F 18% 29.64 in 10.0 mi Calm Calm - N/A   Scattered Clouds
4:53 PM 72.0 °F - 42.1 °F 34% 29.66 in 10.0 mi East 16.1 mph - N/A   Mostly Cloudy
5:00 PM 71.6 °F - 42.8 °F 35% 29.76 in 10.0 mi East 15.0 mph - N/A   Mostly Cloudy
5:53 PM 66.9 °F - 43.0 °F 42% 29.68 in 10.0 mi East 10.4 mph - N/A   Clear
6:53 PM 63.0 °F - 46.9 °F 56% 29.74 in 10.0 mi East 8.1 mph - N/A   Clear
7:53 PM 59.0 °F - 48.0 °F 67% 29.77 in 10.0 mi SE 9.2 mph - N/A   Clear
8:53 PM 55.9 °F - 48.0 °F 75% 29.79 in 10.0 mi SSE 10.4 mph - N/A   Partly Cloudy
9:53 PM 51.1 °F - 46.0 °F 83% 29.79 in 10.0 mi South 9.2 mph - N/A   Clear
10:53 PM 50.0 °F - 46.0 °F 86% 29.77 in 10.0 mi Calm Calm - N/A   Clear
11:53 PM 46.9 °F - 43.0 °F 86% 29.76 in 10.0 mi Calm Calm - N/A   Scattered Clouds